TNO1171 SVVA-KFLL

Flight info

Callsign TNO1171
Flight time 2h 51m
Altitude 43000
Route DAKDI1 PBL UM414 ILVUR UL793 SINDA/N0485F430 UL793 ALIMI UL304 BODLO A756 KNSLY Y350 ZQA OLAHS3
Aircraft C750/M-SBDE3FGHRWXY/S

Departure

Time 2026-04-11 14:01
Airport Arturo Michelena International Airport (SVVA)

Arrival

Time 2026-04-11 16:53
Airport Fort Lauderdale Hollywood International Airport (KFLL)
Time Latitude Longitude Altitude Speed Heading
2026-04-11 13:51 10.15323 -67.92365 1414 ft 0 kts 92°
2026-04-11 13:56 10.15322 -67.92356 1414 ft 3 kts 92°
2026-04-11 13:57 10.15310 -67.92331 1414 ft 5 kts 153°
2026-04-11 13:57 10.15282 -67.92327 1414 ft 6 kts 176°
2026-04-11 13:57 10.15243 -67.92320 1414 ft 5 kts 163°
2026-04-11 13:57 10.15215 -67.92293 1418 ft 6 kts 120°
2026-04-11 13:58 10.15175 -67.92268 1414 ft 9 kts 180°
2026-04-11 13:58 10.15111 -67.92199 1410 ft 16 kts 92°
2026-04-11 13:58 10.15106 -67.92083 1411 ft 16 kts 94°
2026-04-11 13:58 10.15100 -67.91977 1414 ft 14 kts 93°
2026-04-11 13:59 10.15097 -67.91909 1410 ft 15 kts 92°
2026-04-11 13:59 10.15087 -67.91757 1412 ft 18 kts 98°
2026-04-11 13:59 10.15078 -67.91668 1408 ft 19 kts 88°
2026-04-11 13:59 10.15078 -67.91539 1405 ft 17 kts 92°
2026-04-11 14:00 10.15008 -67.91488 1409 ft 14 kts 186°
2026-04-11 14:00 10.14925 -67.91507 1409 ft 11 kts 230°
2026-04-11 14:00 10.14918 -67.91577 1411 ft 17 kts 272°
2026-04-11 14:01 10.14939 -67.92038 1405 ft 116 kts 272°
2026-04-11 14:01 10.14984 -67.93055 1524 ft 161 kts 272°
2026-04-11 14:01 10.15037 -67.94266 1983 ft 179 kts 273°
2026-04-11 14:01 10.15099 -67.95567 2595 ft 191 kts 274°
2026-04-11 14:02 10.15187 -67.96956 3175 ft 204 kts 274°
2026-04-11 14:02 10.15308 -67.98471 3719 ft 225 kts 276°
2026-04-11 14:02 10.15775 -68.00042 4258 ft 246 kts 298°
2026-04-11 14:02 10.16919 -68.01433 4766 ft 267 kts 321°
2026-04-11 14:03 10.18584 -68.02300 5560 ft 272 kts 343°
2026-04-11 14:03 10.20430 -68.02633 6567 ft 270 kts 354°
2026-04-11 14:03 10.22338 -68.02807 7225 ft 284 kts 353°
2026-04-11 14:03 10.24342 -68.03225 7858 ft 300 kts 345°
2026-04-11 14:04 10.26307 -68.03910 8988 ft 295 kts 340°
2026-04-11 14:04 10.28207 -68.04658 10082 ft 294 kts 339°
2026-04-11 14:04 10.30150 -68.05504 10448 ft 317 kts 336°
2026-04-11 14:04 10.32277 -68.06395 10479 ft 345 kts 345°
2026-04-11 14:05 10.34717 -68.06705 10747 ft 360 kts 358°
2026-04-11 14:05 10.37208 -68.06804 11648 ft 359 kts 359°
2026-04-11 14:05 10.39710 -68.06988 12383 ft 362 kts 356°
2026-04-11 14:05 10.42225 -68.07257 13097 ft 366 kts 355°
2026-04-11 14:06 10.44777 -68.07495 13763 ft 370 kts 356°
2026-04-11 14:06 10.47360 -68.07537 14325 ft 375 kts
2026-04-11 14:06 10.49838 -68.06739 14961 ft 376 kts 26°
2026-04-11 14:06 10.52071 -68.05323 15520 ft 380 kts 34°
2026-04-11 14:07 10.54256 -68.03783 16121 ft 385 kts 35°
2026-04-11 14:07 10.56476 -68.02237 16735 ft 388 kts 34°
2026-04-11 14:07 10.58737 -68.00708 17354 ft 393 kts 34°
2026-04-11 14:07 10.61022 -67.99156 17943 ft 398 kts 34°
2026-04-11 14:08 10.63328 -67.97564 18513 ft 404 kts 35°
2026-04-11 14:08 10.65669 -67.95949 19121 ft 409 kts 34°
2026-04-11 14:08 10.68013 -67.94348 19744 ft 413 kts 34°
2026-04-11 14:08 10.70413 -67.92724 20351 ft 417 kts 32°
2026-04-11 14:09 10.73067 -67.91519 20953 ft 419 kts 16°
2026-04-11 14:09 10.75934 -67.91001 21599 ft 421 kts
2026-04-11 14:09 10.78854 -67.91207 22198 ft 423 kts 349°
2026-04-11 14:09 10.81744 -67.91830 22790 ft 426 kts 347°
2026-04-11 14:10 10.84656 -67.92483 23372 ft 430 kts 347°
2026-04-11 14:10 10.87590 -67.93132 23937 ft 434 kts 347°
2026-04-11 14:10 10.90561 -67.93780 24509 ft 438 kts 347°
2026-04-11 14:10 10.93553 -67.94437 25060 ft 442 kts 346°
2026-04-11 14:11 10.96576 -67.95106 25587 ft 446 kts 346°
2026-04-11 14:11 10.99618 -67.95777 26116 ft 450 kts 346°
2026-04-11 14:11 11.02496 -67.96419 26613 ft 454 kts 346°
2026-04-11 14:11 11.05582 -67.97128 27124 ft 457 kts 345°
2026-04-11 14:12 11.08705 -67.97847 27622 ft 461 kts 345°
2026-04-11 14:12 11.11847 -67.98559 28124 ft 465 kts 345°
2026-04-11 14:12 11.15014 -67.99284 28615 ft 468 kts 345°
2026-04-11 14:12 11.18202 -68.00023 29082 ft 472 kts 345°
2026-04-11 14:13 11.21421 -68.00766 29547 ft 476 kts 345°
2026-04-11 14:13 11.24666 -68.01509 29947 ft 480 kts 345°
2026-04-11 14:13 11.27934 -68.02257 30388 ft 483 kts 345°
2026-04-11 14:13 11.31214 -68.03012 30865 ft 484 kts 345°
2026-04-11 14:14 11.34500 -68.03772 31430 ft 483 kts 344°
2026-04-11 14:14 11.37763 -68.04523 32122 ft 478 kts 344°
2026-04-11 14:14 11.40997 -68.05265 32776 ft 475 kts 344°
2026-04-11 14:14 11.44206 -68.06002 33397 ft 472 kts 344°
2026-04-11 14:15 11.47395 -68.06733 34051 ft 468 kts 344°
2026-04-11 14:15 11.50564 -68.07447 34671 ft 464 kts 344°
2026-04-11 14:15 11.53705 -68.08154 35264 ft 461 kts 344°
2026-04-11 14:15 11.56832 -68.08865 35841 ft 458 kts 343°
2026-04-11 14:16 11.59928 -68.09569 36414 ft 455 kts 343°
2026-04-11 14:16 11.63016 -68.10271 36938 ft 453 kts 343°
2026-04-11 14:16 11.66083 -68.10968 37479 ft 451 kts 343°
2026-04-11 14:16 11.69140 -68.11661 37994 ft 449 kts 343°
2026-04-11 14:17 11.72183 -68.12349 38513 ft 447 kts 343°
2026-04-11 14:17 11.75211 -68.13038 39010 ft 445 kts 343°
2026-04-11 14:17 11.78225 -68.13726 39520 ft 443 kts 343°
2026-04-11 14:17 11.81230 -68.14408 39977 ft 441 kts 343°
2026-04-11 14:18 11.84226 -68.15087 40408 ft 441 kts 343°
2026-04-11 14:18 11.86206 -68.15537 40709 ft 440 kts 343°
2026-04-11 14:18 11.88736 -68.16112 41100 ft 439 kts 343°
2026-04-11 14:18 11.91709 -68.16788 41535 ft 437 kts 343°
2026-04-11 14:19 11.94532 -68.17431 41944 ft 436 kts 343°
2026-04-11 14:19 11.97489 -68.18103 42360 ft 435 kts 343°
2026-04-11 14:19 12.00479 -68.18783 42765 ft 434 kts 343°
2026-04-11 14:19 12.03387 -68.19445 43029 ft 436 kts 343°
2026-04-11 14:20 12.09425 -68.20823 43017 ft 453 kts 343°
2026-04-11 14:20 12.15672 -68.22246 43032 ft 468 kts 343°
2026-04-11 14:21 12.22127 -68.23727 43031 ft 482 kts 343°
2026-04-11 14:21 12.28771 -68.25246 43024 ft 496 kts 343°
2026-04-11 14:22 12.35448 -68.26773 43021 ft 486 kts 343°
2026-04-11 14:22 12.41998 -68.28274 43008 ft 481 kts 343°
2026-04-11 14:23 12.48535 -68.29774 43022 ft 482 kts 343°
2026-04-11 14:23 12.55084 -68.31276 43027 ft 482 kts 343°
2026-04-11 14:24 12.61616 -68.32776 43024 ft 481 kts 343°
2026-04-11 14:24 12.68152 -68.34278 43016 ft 482 kts 343°
2026-04-11 14:25 12.74686 -68.35779 43022 ft 481 kts 343°
2026-04-11 14:25 12.81235 -68.37286 43029 ft 482 kts 343°
2026-04-11 14:26 12.87793 -68.38796 43027 ft 483 kts 343°
2026-04-11 14:26 12.94344 -68.40306 43027 ft 483 kts 343°
2026-04-11 14:27 13.00859 -68.41808 43027 ft 483 kts 343°
2026-04-11 14:27 13.07466 -68.43333 43034 ft 484 kts 343°
2026-04-11 14:28 13.13994 -68.44839 43031 ft 484 kts 343°
2026-04-11 14:28 13.20561 -68.46357 43030 ft 484 kts 342°
2026-04-11 14:29 13.27136 -68.47876 43029 ft 484 kts 342°
2026-04-11 14:29 13.33710 -68.49396 43030 ft 484 kts 342°
2026-04-11 14:30 13.40275 -68.50915 43031 ft 484 kts 342°
2026-04-11 14:30 13.46847 -68.52441 43039 ft 485 kts 342°
2026-04-11 14:31 13.53429 -68.53973 43035 ft 485 kts 342°
2026-04-11 14:31 13.60001 -68.55501 43031 ft 484 kts 342°
2026-04-11 14:32 13.66573 -68.57033 43026 ft 485 kts 342°
2026-04-11 14:32 13.73146 -68.58562 43032 ft 485 kts 342°
2026-04-11 14:33 13.79723 -68.60097 43027 ft 485 kts 342°
2026-04-11 14:33 13.86305 -68.61612 43031 ft 485 kts 342°
2026-04-11 14:34 13.92891 -68.63126 43033 ft 485 kts 342°
2026-04-11 14:34 13.99477 -68.64644 43043 ft 485 kts 342°
2026-04-11 14:35 14.06078 -68.66163 43045 ft 487 kts 342°
2026-04-11 14:35 14.12687 -68.67688 43046 ft 487 kts 342°
2026-04-11 14:36 14.19247 -68.69201 43045 ft 486 kts 342°
2026-04-11 14:36 14.25899 -68.70737 43038 ft 487 kts 342°
2026-04-11 14:37 14.32466 -68.72253 43041 ft 487 kts 342°
2026-04-11 14:37 14.38790 -68.74502 43032 ft 477 kts 329°
2026-04-11 14:38 14.44320 -68.78173 43052 ft 472 kts 321°
2026-04-11 14:38 14.49721 -68.82053 43050 ft 473 kts 322°
2026-04-11 14:39 14.55108 -68.85945 43050 ft 473 kts 321°
2026-04-11 14:39 14.60501 -68.89834 43044 ft 473 kts 322°
2026-04-11 14:40 14.65892 -68.93729 43036 ft 473 kts 322°
2026-04-11 14:40 14.71275 -68.97619 43033 ft 472 kts 322°
2026-04-11 14:41 14.76675 -69.01523 43044 ft 474 kts 322°
2026-04-11 14:41 14.82072 -69.05432 43042 ft 474 kts 322°
2026-04-11 14:42 14.87474 -69.09353 43046 ft 475 kts 322°
2026-04-11 14:43 14.95592 -69.15230 43044 ft 474 kts 322°
2026-04-11 14:43 15.00998 -69.19152 43043 ft 475 kts 322°
2026-04-11 14:44 15.06409 -69.23075 43051 ft 475 kts 322°
2026-04-11 14:44 15.11827 -69.27009 43052 ft 476 kts 322°
2026-04-11 14:45 15.16327 -69.30276 43051 ft 477 kts 322°
2026-04-11 14:45 15.22659 -69.34833 43052 ft 477 kts 322°
2026-04-11 14:46 15.28120 -69.38724 43050 ft 476 kts 322°
2026-04-11 14:46 15.32686 -69.42006 43049 ft 477 kts 322°
2026-04-11 14:47 15.38155 -69.45914 43047 ft 477 kts 322°
2026-04-11 14:47 15.43624 -69.49841 43047 ft 478 kts 322°
2026-04-11 14:48 15.49097 -69.53762 43045 ft 478 kts 322°
2026-04-11 14:48 15.54367 -69.57861 43036 ft 475 kts 315°
2026-04-11 14:49 15.58971 -69.62754 43062 ft 475 kts 312°
2026-04-11 14:49 15.65892 -69.70126 43047 ft 475 kts 312°
2026-04-11 14:50 15.70496 -69.75049 43047 ft 475 kts 312°
2026-04-11 14:50 15.75096 -69.79965 43045 ft 475 kts 312°
2026-04-11 14:51 15.79707 -69.84901 43044 ft 475 kts 312°
2026-04-11 14:51 15.84312 -69.89830 43047 ft 476 kts 312°
2026-04-11 14:52 15.88923 -69.94773 43046 ft 476 kts 312°
2026-04-11 14:52 15.93528 -69.99710 43044 ft 476 kts 312°
2026-04-11 14:53 15.98134 -70.04653 43043 ft 476 kts 312°
2026-04-11 14:53 16.03290 -70.08999 43056 ft 481 kts 323°
2026-04-11 14:54 16.08816 -70.12923 43053 ft 480 kts 323°
2026-04-11 14:54 16.14330 -70.16852 43053 ft 480 kts 323°
2026-04-11 14:55 16.19848 -70.20777 43051 ft 481 kts 323°
2026-04-11 14:55 16.25367 -70.24713 43050 ft 481 kts 323°
2026-04-11 14:56 16.30882 -70.28644 43048 ft 480 kts 323°
2026-04-11 14:56 16.36384 -70.32572 43047 ft 480 kts 323°
2026-04-11 14:57 16.41891 -70.36503 43045 ft 480 kts 323°
2026-04-11 14:57 16.47403 -70.40443 43044 ft 481 kts 323°
2026-04-11 14:58 16.52914 -70.44383 43047 ft 480 kts 323°
2026-04-11 14:58 16.58388 -70.48301 43046 ft 480 kts 322°
2026-04-11 14:59 16.63931 -70.52269 43045 ft 480 kts 322°
2026-04-11 14:59 16.69402 -70.56190 43048 ft 480 kts 322°
2026-04-11 15:00 16.74909 -70.60140 43046 ft 481 kts 322°
2026-04-11 15:00 16.80422 -70.64096 43045 ft 481 kts 322°
2026-04-11 15:01 16.85932 -70.68053 43044 ft 481 kts 322°
2026-04-11 15:01 16.91455 -70.72022 43047 ft 481 kts 322°
2026-04-11 15:02 16.96962 -70.75982 43046 ft 480 kts 322°
2026-04-11 15:02 17.02466 -70.79944 43049 ft 480 kts 322°
2026-04-11 15:03 17.07970 -70.83908 43047 ft 481 kts 322°
2026-04-11 15:03 17.13480 -70.87876 43046 ft 481 kts 322°
2026-04-11 15:04 17.18986 -70.91841 43045 ft 481 kts 322°
2026-04-11 15:04 17.24491 -70.95810 43044 ft 480 kts 322°
2026-04-11 15:05 17.29996 -70.99781 43047 ft 481 kts 322°
2026-04-11 15:05 17.35466 -71.03730 43045 ft 481 kts 322°
2026-04-11 15:06 17.41002 -71.07729 43048 ft 480 kts 322°
2026-04-11 15:06 17.46503 -71.11706 43047 ft 481 kts 322°
2026-04-11 15:07 17.52005 -71.15687 43046 ft 480 kts 322°
2026-04-11 15:07 17.57501 -71.19666 43044 ft 480 kts 322°
2026-04-11 15:08 17.62958 -71.23621 43047 ft 480 kts 322°
2026-04-11 15:08 17.68455 -71.27607 43046 ft 481 kts 322°
2026-04-11 15:09 17.73954 -71.31597 43045 ft 481 kts 322°
2026-04-11 15:09 17.79459 -71.35596 43043 ft 483 kts 321°
2026-04-11 15:10 17.84978 -71.39606 43044 ft 482 kts 322°
2026-04-11 15:10 17.90494 -71.43619 43042 ft 483 kts 322°
2026-04-11 15:11 17.96013 -71.47636 43040 ft 483 kts 321°
2026-04-11 15:11 18.01533 -71.51657 43040 ft 483 kts 321°
2026-04-11 15:12 18.07067 -71.55692 43040 ft 484 kts 322°
2026-04-11 15:12 18.12598 -71.59727 43039 ft 484 kts 322°
2026-04-11 15:13 18.18126 -71.63765 43038 ft 484 kts 322°
2026-04-11 15:13 18.23654 -71.67804 43036 ft 484 kts 322°
2026-04-11 15:14 18.29178 -71.71843 43051 ft 483 kts 322°
2026-04-11 15:14 18.34700 -71.75886 43047 ft 484 kts 322°
2026-04-11 15:15 18.40223 -71.79931 43044 ft 483 kts 322°
2026-04-11 15:15 18.45741 -71.83977 43046 ft 484 kts 321°
2026-04-11 15:16 18.51273 -71.88021 43045 ft 484 kts 323°
2026-04-11 15:16 18.57181 -71.91513 43051 ft 488 kts 327°
2026-04-11 15:17 18.63109 -71.94989 43049 ft 488 kts 327°
2026-04-11 15:17 18.69064 -71.98439 43060 ft 487 kts 327°
2026-04-11 15:18 18.74993 -72.01903 43055 ft 487 kts 327°
2026-04-11 15:18 18.80933 -72.05362 43053 ft 488 kts 327°
2026-04-11 15:19 18.86875 -72.08832 43053 ft 488 kts 327°
2026-04-11 15:19 18.92817 -72.12302 43050 ft 488 kts 327°
2026-04-11 15:20 18.98727 -72.15757 43058 ft 488 kts 327°
2026-04-11 15:20 19.04669 -72.19234 43056 ft 488 kts 327°
2026-04-11 15:21 19.10610 -72.22713 43057 ft 488 kts 327°
2026-04-11 15:21 19.16548 -72.26192 43067 ft 488 kts 327°
2026-04-11 15:22 19.22483 -72.29675 43069 ft 488 kts 327°
2026-04-11 15:22 19.28421 -72.33160 43078 ft 488 kts 327°
2026-04-11 15:23 19.34356 -72.36647 43097 ft 487 kts 327°
2026-04-11 15:23 19.40284 -72.40133 43086 ft 487 kts 327°
2026-04-11 15:24 19.46224 -72.43629 43089 ft 489 kts 327°
2026-04-11 15:24 19.52161 -72.47126 43087 ft 488 kts 327°
2026-04-11 15:25 19.58092 -72.50623 43100 ft 488 kts 327°
2026-04-11 15:25 19.64036 -72.54130 43105 ft 489 kts 327°
2026-04-11 15:26 19.69971 -72.57634 43101 ft 488 kts 327°
2026-04-11 15:26 19.75902 -72.61141 43095 ft 489 kts 327°
2026-04-11 15:27 19.81801 -72.64629 43100 ft 488 kts 327°
2026-04-11 15:27 19.87736 -72.68142 43099 ft 488 kts 327°
2026-04-11 15:28 19.93670 -72.71657 43093 ft 488 kts 327°
2026-04-11 15:28 19.99603 -72.75175 43092 ft 488 kts 327°
2026-04-11 15:29 20.05461 -72.78822 43099 ft 489 kts 326°
2026-04-11 15:29 20.11339 -72.82471 43099 ft 489 kts 325°
2026-04-11 15:30 20.17196 -72.86140 43095 ft 489 kts 325°
2026-04-11 15:30 20.23065 -72.89801 43095 ft 490 kts 325°
2026-04-11 15:31 20.28940 -72.93480 43105 ft 490 kts 325°
2026-04-11 15:31 20.34814 -72.97156 43104 ft 490 kts 325°
2026-04-11 15:32 20.39605 -73.00346 43086 ft 485 kts 319°
2026-04-11 15:32 20.44391 -73.05300 43109 ft 478 kts 308°
2026-04-11 15:33 20.48814 -73.10613 43113 ft 480 kts 308°
2026-04-11 15:33 20.53242 -73.15928 43116 ft 479 kts 308°
2026-04-11 15:34 20.57652 -73.21237 43112 ft 478 kts 308°
2026-04-11 15:34 20.62071 -73.26553 43110 ft 478 kts 308°
2026-04-11 15:35 20.66480 -73.31869 43108 ft 478 kts 308°
2026-04-11 15:35 20.70897 -73.37194 43107 ft 478 kts 308°
2026-04-11 15:36 20.75306 -73.42519 43105 ft 478 kts 308°
2026-04-11 15:36 20.79717 -73.47848 43104 ft 479 kts 308°
2026-04-11 15:37 20.84136 -73.53194 43102 ft 479 kts 308°
2026-04-11 15:37 20.88547 -73.58534 43103 ft 479 kts 308°
2026-04-11 15:38 20.92956 -73.63877 43099 ft 479 kts 308°
2026-04-11 15:38 20.97552 -73.68996 43124 ft 485 kts 316°
2026-04-11 15:39 21.02765 -73.73588 43126 ft 485 kts 316°
2026-04-11 15:39 21.07953 -73.78201 43124 ft 486 kts 316°
2026-04-11 15:40 21.13170 -73.82811 43122 ft 486 kts 316°
2026-04-11 15:40 21.18366 -73.87428 43128 ft 485 kts 316°
2026-04-11 15:41 21.23579 -73.92052 43119 ft 486 kts 316°
2026-04-11 15:41 21.28779 -73.96676 43115 ft 486 kts 316°
2026-04-11 15:42 21.33983 -74.01304 43115 ft 486 kts 316°
2026-04-11 15:43 21.41778 -74.08247 43115 ft 485 kts 316°
2026-04-11 15:43 21.46971 -74.12878 43112 ft 486 kts 316°
2026-04-11 15:44 21.52169 -74.17517 43113 ft 486 kts 316°
2026-04-11 15:44 21.57365 -74.22159 43123 ft 486 kts 316°
2026-04-11 15:45 21.62570 -74.26814 43128 ft 486 kts 316°
2026-04-11 15:45 21.67769 -74.31467 43127 ft 486 kts 316°
2026-04-11 15:46 21.72969 -74.36127 43127 ft 486 kts 316°
2026-04-11 15:46 21.78167 -74.40789 43128 ft 486 kts 316°
2026-04-11 15:47 21.83327 -74.45421 43135 ft 486 kts 316°
2026-04-11 15:47 21.88516 -74.50084 43128 ft 486 kts 316°
2026-04-11 15:48 21.93709 -74.54755 43140 ft 486 kts 316°
2026-04-11 15:48 21.98894 -74.59424 43141 ft 486 kts 316°
2026-04-11 15:49 22.04087 -74.64104 43151 ft 488 kts 316°
2026-04-11 15:49 22.09295 -74.68802 43152 ft 487 kts 316°
2026-04-11 15:50 22.14487 -74.73492 43150 ft 487 kts 316°
2026-04-11 15:50 22.19681 -74.78187 43148 ft 487 kts 316°
2026-04-11 15:51 22.24875 -74.82887 43148 ft 487 kts 316°
2026-04-11 15:51 22.30068 -74.87590 43145 ft 487 kts 316°
2026-04-11 15:52 22.35256 -74.92294 43151 ft 487 kts 316°
2026-04-11 15:52 22.40443 -74.97002 43160 ft 487 kts 316°
2026-04-11 15:53 22.45634 -75.01718 43160 ft 487 kts 316°
2026-04-11 15:53 22.50820 -75.06434 43158 ft 487 kts 316°
2026-04-11 15:54 22.56000 -75.11150 43157 ft 487 kts 316°
2026-04-11 15:54 22.61185 -75.15875 43156 ft 487 kts 316°
2026-04-11 15:55 22.66365 -75.20601 43160 ft 487 kts 316°
2026-04-11 15:55 22.71548 -75.25333 43169 ft 487 kts 315°
2026-04-11 15:56 22.76728 -75.30068 43169 ft 487 kts 315°
2026-04-11 15:56 22.81907 -75.34807 43167 ft 487 kts 315°
2026-04-11 15:57 22.87083 -75.39548 43165 ft 487 kts 315°
2026-04-11 15:57 22.92258 -75.44294 43179 ft 487 kts 315°
2026-04-11 15:58 22.97438 -75.49048 43178 ft 488 kts 316°
2026-04-11 15:58 23.02623 -75.53812 43176 ft 488 kts 315°
2026-04-11 15:59 23.07803 -75.58577 43175 ft 488 kts 315°
2026-04-11 15:59 23.12984 -75.63347 43178 ft 488 kts 315°
2026-04-11 16:00 23.18127 -75.68088 43177 ft 488 kts 315°
2026-04-11 16:00 23.23298 -75.72858 43176 ft 488 kts 315°
2026-04-11 16:01 23.28476 -75.77642 43176 ft 488 kts 315°
2026-04-11 16:01 23.33644 -75.82421 43187 ft 488 kts 315°
2026-04-11 16:02 23.38822 -75.87213 43188 ft 488 kts 315°
2026-04-11 16:02 23.43993 -75.92005 43181 ft 488 kts 315°
2026-04-11 16:03 23.49166 -75.96803 43185 ft 488 kts 315°
2026-04-11 16:03 23.54343 -76.01611 43184 ft 489 kts 315°
2026-04-11 16:04 23.59524 -76.06427 43199 ft 489 kts 315°
2026-04-11 16:04 23.64703 -76.11246 43198 ft 489 kts 315°
2026-04-11 16:05 23.69879 -76.16067 43191 ft 489 kts 315°
2026-04-11 16:05 23.75052 -76.20892 43191 ft 489 kts 315°
2026-04-11 16:06 23.82812 -76.28139 43201 ft 489 kts 315°
2026-04-11 16:06 23.87912 -76.33051 43202 ft 489 kts 314°
2026-04-11 16:07 23.93017 -76.37961 43204 ft 489 kts 315°
2026-04-11 16:07 23.98125 -76.42873 43203 ft 489 kts 314°
2026-04-11 16:08 24.03219 -76.47789 43206 ft 488 kts 315°
2026-04-11 16:08 24.08317 -76.52703 43214 ft 488 kts 315°
2026-04-11 16:09 24.13406 -76.57623 43228 ft 488 kts 315°
2026-04-11 16:09 24.18500 -76.62546 43225 ft 488 kts 315°
2026-04-11 16:10 24.23559 -76.67446 43224 ft 488 kts 315°
2026-04-11 16:10 24.28681 -76.72407 43226 ft 488 kts 315°
2026-04-11 16:11 24.33725 -76.77303 43224 ft 488 kts 315°
2026-04-11 16:11 24.38805 -76.82237 43235 ft 488 kts 315°
2026-04-11 16:12 24.43887 -76.87179 43236 ft 488 kts 315°
2026-04-11 16:12 24.48967 -76.92124 43234 ft 488 kts 315°
2026-04-11 16:13 24.54040 -76.97068 43231 ft 487 kts 315°
2026-04-11 16:13 24.59104 -77.02007 43230 ft 487 kts 315°
2026-04-11 16:14 24.64170 -77.06950 43231 ft 487 kts 315°
2026-04-11 16:14 24.69232 -77.11903 43242 ft 487 kts 315°
2026-04-11 16:15 24.74294 -77.16857 43237 ft 487 kts 315°
2026-04-11 16:15 24.79360 -77.21824 43238 ft 487 kts 315°
2026-04-11 16:16 24.84418 -77.26786 43240 ft 487 kts 315°
2026-04-11 16:16 24.89471 -77.31750 43243 ft 486 kts 315°
2026-04-11 16:17 24.93664 -77.35874 43238 ft 487 kts 315°
2026-04-11 16:17 24.98711 -77.40853 43231 ft 486 kts 314°
2026-04-11 16:18 25.02932 -77.46563 43228 ft 478 kts 299°
2026-04-11 16:18 25.05744 -77.53135 43250 ft 473 kts 291°
2026-04-11 16:19 25.08269 -77.59855 43258 ft 474 kts 291°
2026-04-11 16:19 25.10776 -77.66572 43236 ft 472 kts 291°
2026-04-11 16:20 25.12006 -77.69869 42633 ft 459 kts 291°
2026-04-11 16:20 25.13206 -77.73076 42031 ft 446 kts 291°
2026-04-11 16:20 25.14372 -77.76200 41445 ft 433 kts 291°
2026-04-11 16:20 25.15498 -77.79229 40883 ft 421 kts 290°
2026-04-11 16:21 25.16595 -77.82180 40319 ft 409 kts 290°
2026-04-11 16:21 25.17664 -77.85050 39788 ft 400 kts 290°
2026-04-11 16:21 25.18714 -77.87874 39263 ft 395 kts 290°
2026-04-11 16:21 25.19751 -77.90670 38743 ft 393 kts 290°
2026-04-11 16:22 25.20792 -77.93478 38213 ft 397 kts 290°
2026-04-11 16:22 25.21846 -77.96315 37691 ft 401 kts 290°
2026-04-11 16:22 25.22905 -77.99168 37153 ft 403 kts 290°
2026-04-11 16:22 25.23966 -78.02032 36620 ft 403 kts 291°
2026-04-11 16:23 25.25015 -78.04866 36090 ft 404 kts 291°
2026-04-11 16:23 25.26096 -78.07789 35544 ft 408 kts 291°
2026-04-11 16:23 25.27175 -78.10707 35008 ft 411 kts 291°
2026-04-11 16:23 25.28260 -78.13643 34444 ft 414 kts 291°
2026-04-11 16:24 25.29351 -78.16602 33897 ft 417 kts 291°
2026-04-11 16:24 25.30480 -78.19569 33342 ft 420 kts 293°
2026-04-11 16:24 25.31690 -78.22528 32778 ft 425 kts 293°
2026-04-11 16:24 25.32876 -78.25535 32212 ft 429 kts 292°
2026-04-11 16:25 25.34071 -78.28563 31639 ft 432 kts 292°
2026-04-11 16:25 25.35297 -78.31607 31066 ft 435 kts 293°
2026-04-11 16:25 25.36522 -78.34638 30491 ft 438 kts 293°
2026-04-11 16:25 25.37744 -78.37702 29912 ft 434 kts 292°
2026-04-11 16:26 25.38949 -78.40735 29343 ft 425 kts 292°
2026-04-11 16:26 25.40115 -78.43651 28777 ft 404 kts 293°
2026-04-11 16:26 25.41233 -78.46449 28254 ft 393 kts 293°
2026-04-11 16:26 25.42305 -78.49208 27738 ft 389 kts 292°
2026-04-11 16:27 25.43344 -78.51974 27228 ft 390 kts 291°
2026-04-11 16:27 25.44387 -78.54735 26707 ft 389 kts 291°
2026-04-11 16:27 25.45451 -78.57484 26199 ft 388 kts 292°
2026-04-11 16:27 25.46510 -78.60219 25678 ft 386 kts 292°
2026-04-11 16:28 25.47552 -78.62944 25167 ft 383 kts 292°
2026-04-11 16:28 25.48585 -78.65656 24659 ft 381 kts 292°
2026-04-11 16:28 25.49616 -78.68350 24162 ft 379 kts 292°
2026-04-11 16:28 25.50643 -78.71025 23661 ft 377 kts 292°
2026-04-11 16:29 25.51662 -78.73687 23159 ft 375 kts 292°
2026-04-11 16:29 25.52662 -78.76305 22674 ft 363 kts 292°
2026-04-11 16:29 25.53634 -78.78849 22189 ft 356 kts 292°
2026-04-11 16:29 25.54594 -78.81362 21725 ft 354 kts 292°
2026-04-11 16:30 25.55548 -78.83865 21257 ft 352 kts 292°
2026-04-11 16:30 25.56500 -78.86360 20787 ft 351 kts 292°
2026-04-11 16:30 25.57446 -78.88845 20325 ft 350 kts 292°
2026-04-11 16:30 25.58390 -78.91324 19817 ft 349 kts 292°
2026-04-11 16:31 25.59337 -78.93812 19153 ft 348 kts 292°
2026-04-11 16:31 25.60268 -78.96259 18680 ft 343 kts 292°
2026-04-11 16:31 25.61190 -78.98685 18229 ft 341 kts 292°
2026-04-11 16:31 25.62109 -79.01102 17778 ft 340 kts 292°
2026-04-11 16:32 25.63027 -79.03520 17326 ft 340 kts 292°
2026-04-11 16:32 25.63939 -79.05929 16871 ft 339 kts 292°
2026-04-11 16:32 25.64839 -79.08335 16426 ft 337 kts 292°
2026-04-11 16:32 25.65733 -79.10726 15983 ft 336 kts 292°
2026-04-11 16:33 25.66629 -79.13109 15535 ft 335 kts 292°
2026-04-11 16:33 25.67524 -79.15489 15093 ft 334 kts 292°
2026-04-11 16:33 25.68414 -79.17862 14651 ft 333 kts 293°
2026-04-11 16:33 25.69299 -79.20227 14209 ft 331 kts 293°
2026-04-11 16:34 25.70182 -79.22584 13770 ft 331 kts 293°
2026-04-11 16:34 25.71063 -79.24934 13333 ft 330 kts 293°
2026-04-11 16:34 25.71943 -79.27285 12895 ft 329 kts 293°
2026-04-11 16:34 25.72817 -79.29625 12459 ft 328 kts 293°
2026-04-11 16:35 25.73683 -79.31961 12025 ft 327 kts 293°
2026-04-11 16:35 25.74535 -79.34297 11592 ft 327 kts 293°
2026-04-11 16:35 25.75388 -79.36632 11158 ft 326 kts 293°
2026-04-11 16:35 25.76242 -79.38956 10728 ft 324 kts 294°
2026-04-11 16:36 25.77090 -79.41262 10295 ft 319 kts 294°
2026-04-11 16:36 25.77902 -79.43482 9880 ft 305 kts 294°
2026-04-11 16:36 25.78690 -79.45638 9478 ft 299 kts 294°
2026-04-11 16:36 25.79471 -79.47763 9084 ft 296 kts 294°
2026-04-11 16:37 25.80246 -79.49877 8696 ft 296 kts 294°
2026-04-11 16:37 25.81017 -79.51993 8306 ft 295 kts 294°
2026-04-11 16:37 25.81784 -79.54095 7924 ft 294 kts 294°
2026-04-11 16:37 25.82550 -79.56192 7535 ft 292 kts 294°
2026-04-11 16:38 25.83311 -79.58275 7141 ft 290 kts 294°
2026-04-11 16:38 25.84069 -79.60347 6764 ft 289 kts 295°
2026-04-11 16:38 25.84825 -79.62375 6387 ft 288 kts 295°
2026-04-11 16:38 25.85623 -79.64433 6017 ft 285 kts 297°
2026-04-11 16:39 25.86494 -79.66351 6008 ft 279 kts 298°
2026-04-11 16:39 25.87298 -79.68304 6016 ft 282 kts 297°
2026-04-11 16:39 25.88115 -79.70290 6018 ft 284 kts 298°
2026-04-11 16:39 25.88972 -79.72261 6019 ft 284 kts 299°
2026-04-11 16:40 25.89833 -79.74236 6019 ft 284 kts 298°
2026-04-11 16:40 25.90678 -79.76220 6017 ft 284 kts 298°
2026-04-11 16:40 25.91516 -79.78202 6020 ft 284 kts 298°
2026-04-11 16:40 25.92359 -79.80182 6017 ft 283 kts 298°
2026-04-11 16:41 25.93205 -79.82161 6015 ft 283 kts 298°
2026-04-11 16:41 25.94049 -79.84141 6014 ft 283 kts 298°
2026-04-11 16:41 25.94888 -79.86113 6013 ft 283 kts 298°
2026-04-11 16:41 25.95728 -79.88090 6012 ft 283 kts 298°
2026-04-11 16:42 25.96492 -79.89890 6004 ft 283 kts 298°
2026-04-11 16:42 25.97236 -79.91637 6009 ft 283 kts 298°
2026-04-11 16:42 25.98076 -79.93612 6011 ft 283 kts 298°
2026-04-11 16:43 26.00281 -79.97140 6014 ft 279 kts 316°
2026-04-11 16:43 26.01599 -79.98714 6022 ft 278 kts 316°
2026-04-11 16:43 26.02897 -80.00314 6021 ft 279 kts 315°
2026-04-11 16:43 26.04184 -80.01923 6013 ft 279 kts 315°
2026-04-11 16:44 26.05479 -80.03524 6017 ft 278 kts 315°
2026-04-11 16:44 26.06776 -80.05122 6017 ft 279 kts 315°
2026-04-11 16:44 26.08073 -80.06724 6017 ft 278 kts 315°
2026-04-11 16:44 26.09348 -80.08304 6018 ft 278 kts 315°
2026-04-11 16:45 26.10643 -80.09906 6020 ft 278 kts 315°
2026-04-11 16:45 26.11937 -80.11508 6013 ft 278 kts 315°
2026-04-11 16:45 26.13232 -80.13110 6011 ft 278 kts 315°
2026-04-11 16:45 26.14458 -80.14771 5978 ft 281 kts 305°
2026-04-11 16:46 26.15040 -80.16865 5794 ft 291 kts 278°
2026-04-11 16:46 26.15069 -80.19030 5502 ft 265 kts 271°
2026-04-11 16:46 26.15045 -80.20992 5221 ft 244 kts 272°
2026-04-11 16:46 26.15057 -80.22852 5009 ft 237 kts 273°
2026-04-11 16:47 26.15077 -80.24674 4940 ft 239 kts 273°
2026-04-11 16:47 26.15090 -80.26527 4680 ft 241 kts 273°
2026-04-11 16:47 26.15092 -80.28387 4374 ft 240 kts 272°
2026-04-11 16:47 26.14693 -80.30186 3994 ft 242 kts 245°
2026-04-11 16:48 26.13658 -80.31625 3691 ft 238 kts 219°
2026-04-11 16:48 26.12214 -80.32478 3389 ft 232 kts 194°
2026-04-11 16:48 26.10685 -80.32626 3099 ft 211 kts 171°
2026-04-11 16:48 26.09382 -80.32125 2828 ft 189 kts 144°
2026-04-11 16:49 26.08448 -80.31196 2606 ft 176 kts 123°
2026-04-11 16:49 26.07907 -80.30024 2381 ft 167 kts 103°
2026-04-11 16:49 26.07760 -80.28766 2163 ft 162 kts 88°
2026-04-11 16:49 26.07763 -80.27508 1958 ft 163 kts 88°
2026-04-11 16:50 26.07747 -80.26243 1729 ft 164 kts 88°
2026-04-11 16:50 26.07737 -80.24997 1503 ft 155 kts 88°
2026-04-11 16:50 26.07732 -80.23812 1295 ft 154 kts 88°
2026-04-11 16:50 26.07725 -80.22629 1093 ft 144 kts 88°
2026-04-11 16:51 26.07720 -80.21598 950 ft 122 kts 89°
2026-04-11 16:51 26.07712 -80.20683 855 ft 120 kts 89°
2026-04-11 16:51 26.07706 -80.19747 700 ft 121 kts 89°
2026-04-11 16:51 26.07707 -80.18815 534 ft 121 kts 87°
2026-04-11 16:52 26.07697 -80.17873 361 ft 122 kts 89°
2026-04-11 16:52 26.07701 -80.16940 138 ft 121 kts 87°
2026-04-11 16:52 26.07691 -80.16027 35 ft 109 kts 89°
2026-04-11 16:52 26.07686 -80.15284 13 ft 74 kts 90°
2026-04-11 16:53 26.07682 -80.14920 15 ft 26 kts 94°
2026-04-11 16:53 26.07667 -80.14725 16 ft 24 kts 100°
2026-04-11 16:53 26.07616 -80.14595 15 ft 14 kts 152°
2026-04-11 16:53 26.07559 -80.14648 13 ft 13 kts 269°
2026-04-11 16:54 26.07561 -80.14746 13 ft 12 kts 271°
2026-04-11 16:54 26.07560 -80.14841 13 ft 12 kts 270°
2026-04-11 16:54 26.07559 -80.14934 13 ft 12 kts 269°
2026-04-11 16:54 26.07559 -80.15024 12 ft 12 kts 272°
2026-04-11 16:55 26.07563 -80.15121 12 ft 14 kts 271°
2026-04-11 16:55 26.07562 -80.15240 12 ft 16 kts 270°
2026-04-11 16:55 26.07514 -80.15298 12 ft 11 kts 177°
2026-04-11 16:55 26.07439 -80.15300 12 ft 11 kts 184°
2026-04-11 16:56 26.07292 -80.15300 12 ft 12 kts 180°
2026-04-11 16:56 26.07210 -80.15300 12 ft 12 kts 181°
2026-04-11 16:56 26.07130 -80.15301 12 ft 11 kts 181°
2026-04-11 16:57 26.07053 -80.15301 12 ft 11 kts 179°
2026-04-11 16:57 26.06989 -80.15329 12 ft 10 kts 241°
2026-04-11 16:57 26.06984 -80.15401 12 ft 9 kts 291°
2026-04-11 16:57 26.06997 -80.15464 12 ft 6 kts 240°
2026-04-11 16:58 26.06986 -80.15475 12 ft 0 kts 219°